Simultaneous Nadir Overpasses (SNOs) Predictions

Prediction of SNOs between LANDSAT-8 and NOAA-19 Satellite Orbit:

Table of predicted SNOs for the next 14.0 days since TLE Epoch: 6/1/2024
Index Date (LANDSAT-8) Time (LANDSAT-8) Lat,Lon (LANDSAT-8) SZA (LANDSAT-8 ) Date (NOAA-19) Time (NOAA-19) Lat,Lon (NOAA-19) SZA (NOAA-19 ) Distance(km) Time Diff (sec)
1 06/02/2024 18:25:50 -80.73, 118.13 119.84 06/02/2024 18:25:46 -80.73, 118.20 119.83 1.32 4
2 06/05/2024 00:49:02 -80.72, 22.27 120.12 06/05/2024 00:48:41 -80.72, 22.41 120.11 2.40 21
3 06/05/2024 01:38:27 80.75,-169.72 59.94 06/05/2024 01:39:34 80.74,-169.82 59.96 2.04 67
4 06/07/2024 07:12:14 -80.71, -73.66 120.37 06/07/2024 07:11:37 -80.70, -73.83 120.41 3.30 37
5 06/07/2024 08:01:39 80.74, 94.33 59.68 06/07/2024 08:02:29 80.74, 94.42 59.71 1.66 50
6 06/09/2024 13:35:26 -80.69,-169.66 120.61 06/09/2024 13:34:32 -80.69,-169.79 120.65 2.38 54
7 06/09/2024 14:24:51 80.72, -1.69 59.44 06/09/2024 14:25:25 80.72, -1.77 59.45 1.30 34
8 06/11/2024 19:58:37 -80.70, 94.60 120.77 06/11/2024 19:57:26 -80.69, 94.53 120.81 1.72 71
9 06/11/2024 20:48:02 80.72, -97.45 59.28 06/11/2024 20:48:19 80.72, -97.30 59.31 2.70 17



Historial Predications of SNOs between LANDSAT-8 and NOAA-19
